Terminal Aerodrome Forecast
Issued by NWS

Home | Current Version | Previous Version | Text Only | Print | Product List | Glossary On
Versions: 1 2 3 4 5 6 7 8 9 10 11 12 13 14 15 16 17 18 19 20 21 22 23 24 25 26 27 28 29 30
000
FTUS43 KDLH 242300
TAFHYR
TAF
KHYR 242332Z 2500/2524 30004KT 6SM -SN BR BKN015 OVC030
      TEMPO 2502/2505 2SM -SN BR BKN007 OVC015
     FM250500 22006KT 6SM -SN BR OVC009
     FM250900 21007KT 5SM -FZDZ BR OVC007
     FM251700 19004KT P6SM -SN OVC012=

USA.gov is the U.S. government's official web portal to all federal, state and local government web resources and services.